User: anonymous   Login
Location: Eyeline Observatory
(43.2182°N, 78.8632°W)
Time: 10:51:18
(UTC-05:00)
Language:

Hubble Space Telescope - Orbit

View from above orbital plane
View from above orbital plane
View from above satellite
View from above satellite

Ground track
Ground track

The orbit data is extracted from the following two-line orbital elements,

1 20580U 90037B   17350.90656727 +.00000524 +00000-0 +21229-4 0  9993
2 20580 028.4689 240.0001 0002591 342.5968 105.6324 15.08945607317822
Epoch (UTC): 16 December 2017 21:45:27
Eccentricity: 0.0002591
inclination: 28.4689°
perigee height: 537 km
apogee height: 541 km
right ascension of ascending node: 240.0001°
argument of perigee: 342.5968°
revolutions per day: 15.08945607
mean anomaly at epoch: 105.6324°
orbit number at epoch: 31782

The dashed part of the orbit path shows where the satellite is in the earth's shadow,  

DLR